Year,Month,Day,Hour,Minute,Value (Times are PST for temperature in C)
2015,06,07,00,00,15.90
2015,06,07,00,01,15.90
2015,06,07,00,02,15.90
2015,06,07,00,03,15.90
2015,06,07,00,04,15.90
2015,06,07,00,05,15.90
2015,06,07,00,06,15.90
2015,06,07,00,07,15.90
2015,06,07,00,08,15.90
2015,06,07,00,09,15.90
2015,06,07,00,10,15.90
2015,06,07,00,11,15.90
2015,06,07,00,12,15.90
2015,06,07,00,13,15.90
2015,06,07,00,14,15.90
2015,06,07,00,15,15.90
2015,06,07,00,16,15.90
2015,06,07,00,17,15.90
2015,06,07,00,18,15.90
2015,06,07,00,19,15.90
2015,06,07,00,20,15.80
2015,06,07,00,21,15.80
2015,06,07,00,22,15.80
2015,06,07,00,23,15.80
2015,06,07,00,24,15.80
2015,06,07,00,25,15.80
2015,06,07,00,26,15.80
2015,06,07,00,27,15.80
2015,06,07,00,28,15.80
2015,06,07,00,29,15.80
2015,06,07,00,30,15.80
2015,06,07,00,31,15.80
2015,06,07,00,32,15.80
2015,06,07,00,33,15.80
2015,06,07,00,34,15.80
2015,06,07,00,35,15.70
2015,06,07,00,36,15.70
2015,06,07,00,37,15.70
2015,06,07,00,38,15.70
2015,06,07,00,39,15.70
2015,06,07,00,40,15.70
2015,06,07,00,41,15.70
2015,06,07,00,42,15.70
2015,06,07,00,43,15.70
2015,06,07,00,44,15.70
2015,06,07,00,45,15.60
2015,06,07,00,46,15.60
2015,06,07,00,47,15.60
2015,06,07,00,48,15.60
2015,06,07,00,49,15.50
2015,06,07,00,50,15.50
2015,06,07,00,51,15.50
2015,06,07,00,52,15.50
2015,06,07,00,53,15.40
2015,06,07,00,54,15.40
2015,06,07,00,55,15.40
2015,06,07,00,56,15.40
2015,06,07,00,57,15.30
2015,06,07,00,58,15.30
2015,06,07,00,59,15.30
2015,06,07,01,00,15.30
2015,06,07,01,01,15.30
2015,06,07,01,02,15.20
2015,06,07,01,03,15.20
2015,06,07,01,04,15.20
2015,06,07,01,05,15.10
2015,06,07,01,06,15.10
2015,06,07,01,07,15.00
2015,06,07,01,08,15.00
2015,06,07,01,09,15.00
2015,06,07,01,10,15.00
2015,06,07,01,11,15.00
2015,06,07,01,12,15.00
2015,06,07,01,13,15.00
2015,06,07,01,14,14.90
2015,06,07,01,15,14.90
2015,06,07,01,16,14.80
2015,06,07,01,17,14.80
2015,06,07,01,18,14.70
2015,06,07,01,19,14.70
2015,06,07,01,20,14.70
2015,06,07,01,21,14.60
2015,06,07,01,22,14.60
2015,06,07,01,23,14.60
2015,06,07,01,24,14.50
2015,06,07,01,25,14.50
2015,06,07,01,26,14.40
2015,06,07,01,27,14.30
2015,06,07,01,28,14.30
2015,06,07,01,29,14.20
2015,06,07,01,30,14.20
2015,06,07,01,31,14.10
2015,06,07,01,32,14.00
2015,06,07,01,33,14.00
2015,06,07,01,34,13.90
2015,06,07,01,35,13.90
2015,06,07,01,36,13.80
2015,06,07,01,37,13.80
2015,06,07,01,38,13.80
2015,06,07,01,39,13.80
2015,06,07,01,40,13.70
2015,06,07,01,41,13.70
2015,06,07,01,42,13.70
2015,06,07,01,43,13.70
2015,06,07,01,44,13.60
2015,06,07,01,45,13.60
2015,06,07,01,46,13.60
2015,06,07,01,47,13.50
2015,06,07,01,48,13.50
2015,06,07,01,49,13.40
2015,06,07,01,50,13.40
2015,06,07,01,51,13.40
2015,06,07,01,52,13.30
2015,06,07,01,53,13.30
2015,06,07,01,54,13.30
2015,06,07,01,55,13.20
2015,06,07,01,56,13.20
2015,06,07,01,57,13.20
2015,06,07,01,58,13.10
2015,06,07,01,59,13.10
2015,06,07,02,00,13.00
2015,06,07,02,01,13.00
2015,06,07,02,02,12.90
2015,06,07,02,03,12.80
2015,06,07,02,04,12.80
2015,06,07,02,05,12.80
2015,06,07,02,06,12.80
2015,06,07,02,07,12.80
2015,06,07,02,08,12.70
2015,06,07,02,09,12.70
2015,06,07,02,10,12.70
2015,06,07,02,11,12.70
2015,06,07,02,12,12.70
2015,06,07,02,13,12.60
2015,06,07,02,14,12.60
2015,06,07,02,15,12.60
2015,06,07,02,16,12.60
2015,06,07,02,17,12.60
2015,06,07,02,18,12.60
2015,06,07,02,19,12.50
2015,06,07,02,20,12.50
2015,06,07,02,21,12.50
2015,06,07,02,22,12.50
2015,06,07,02,23,12.40
2015,06,07,02,24,12.40
2015,06,07,02,25,12.40
2015,06,07,02,26,12.40
2015,06,07,02,27,12.40
2015,06,07,02,28,12.30
2015,06,07,02,29,12.30
2015,06,07,02,30,12.30
2015,06,07,02,31,12.30
2015,06,07,02,32,12.30
2015,06,07,02,33,12.30
2015,06,07,02,34,12.30
2015,06,07,02,35,12.20
2015,06,07,02,36,12.20
2015,06,07,02,37,12.20
2015,06,07,02,38,12.20
2015,06,07,02,39,12.20
2015,06,07,02,40,12.20
2015,06,07,02,41,12.20
2015,06,07,02,42,12.20
2015,06,07,02,43,12.20
2015,06,07,02,44,12.20
2015,06,07,02,45,12.20
2015,06,07,02,46,12.10
2015,06,07,02,47,12.10
2015,06,07,02,48,12.10
2015,06,07,02,49,12.10
2015,06,07,02,50,12.10
2015,06,07,02,51,12.10
2015,06,07,02,52,12.10
2015,06,07,02,53,12.10
2015,06,07,02,54,12.10
2015,06,07,02,55,12.10
2015,06,07,02,56,12.10
2015,06,07,02,57,12.10
2015,06,07,02,58,12.10
2015,06,07,02,59,12.10
2015,06,07,03,00,12.00
2015,06,07,03,01,12.00
2015,06,07,03,02,12.00
2015,06,07,03,03,12.00
2015,06,07,03,04,12.00
2015,06,07,03,05,12.00
2015,06,07,03,06,12.00
2015,06,07,03,07,12.00
2015,06,07,03,08,12.00
2015,06,07,03,09,11.90
2015,06,07,03,10,11.90
2015,06,07,03,11,11.90
2015,06,07,03,12,11.90
2015,06,07,03,13,11.90
2015,06,07,03,14,11.90
2015,06,07,03,15,11.90
2015,06,07,03,16,11.90
2015,06,07,03,17,11.90
2015,06,07,03,18,11.90
2015,06,07,03,19,11.90
2015,06,07,03,20,11.90
2015,06,07,03,21,11.90
2015,06,07,03,22,11.90
2015,06,07,03,23,11.90
2015,06,07,03,24,11.90
2015,06,07,03,25,11.90
2015,06,07,03,26,11.90
2015,06,07,03,27,11.90
2015,06,07,03,28,11.90
2015,06,07,03,29,11.90
2015,06,07,03,30,11.90
2015,06,07,03,31,11.90
2015,06,07,03,32,11.90
2015,06,07,03,33,11.90
2015,06,07,03,34,11.90
2015,06,07,03,35,11.90
2015,06,07,03,36,11.90
2015,06,07,03,37,11.90
2015,06,07,03,38,11.90
2015,06,07,03,39,11.90
2015,06,07,03,40,11.90
2015,06,07,03,41,12.00
2015,06,07,03,42,12.00
2015,06,07,03,43,12.00
2015,06,07,03,44,11.90
2015,06,07,03,45,12.00
2015,06,07,03,46,12.00
2015,06,07,03,47,12.00
2015,06,07,03,48,11.90
2015,06,07,03,49,11.90
2015,06,07,03,50,11.90
2015,06,07,03,51,12.00
2015,06,07,03,52,12.00
2015,06,07,03,53,12.00
2015,06,07,03,54,12.00
2015,06,07,03,55,12.00
2015,06,07,03,56,12.00
2015,06,07,03,57,12.00
2015,06,07,03,58,12.00
2015,06,07,03,59,12.00
2015,06,07,04,00,12.10
2015,06,07,04,01,12.10
2015,06,07,04,02,12.10
2015,06,07,04,03,12.10
2015,06,07,04,04,12.10
2015,06,07,04,05,12.10
2015,06,07,04,06,12.10
2015,06,07,04,07,12.10
2015,06,07,04,08,12.20
2015,06,07,04,09,12.20
2015,06,07,04,10,12.20
2015,06,07,04,11,12.20
2015,06,07,04,12,12.20
2015,06,07,04,13,12.20
2015,06,07,04,14,12.20
2015,06,07,04,15,12.20
2015,06,07,04,16,12.20
2015,06,07,04,17,12.20
2015,06,07,04,18,12.20
2015,06,07,04,19,12.20
2015,06,07,04,20,12.20
2015,06,07,04,21,12.20
2015,06,07,04,22,12.20
2015,06,07,04,23,12.20
2015,06,07,04,24,12.20
2015,06,07,04,25,12.20
2015,06,07,04,26,12.20
2015,06,07,04,27,12.10
2015,06,07,04,28,12.10
2015,06,07,04,29,12.10
2015,06,07,04,30,12.10
2015,06,07,04,31,12.10
2015,06,07,04,32,12.10
2015,06,07,04,33,12.10
2015,06,07,04,34,12.10
2015,06,07,04,35,12.10
2015,06,07,04,36,12.10
2015,06,07,04,37,12.10
2015,06,07,04,38,12.10
2015,06,07,04,39,12.10
2015,06,07,04,40,12.10
2015,06,07,04,41,12.10
2015,06,07,04,42,12.10
2015,06,07,04,43,12.10
2015,06,07,04,44,12.10
2015,06,07,04,45,12.10
2015,06,07,04,46,12.10
2015,06,07,04,47,12.10
2015,06,07,04,48,12.10
2015,06,07,04,49,12.10
2015,06,07,04,50,12.10
2015,06,07,04,51,12.10
2015,06,07,04,52,12.10
2015,06,07,04,53,12.10
2015,06,07,04,54,12.10
2015,06,07,04,55,12.10
2015,06,07,04,56,12.10
2015,06,07,04,57,12.10
2015,06,07,04,58,12.00
2015,06,07,04,59,12.00
2015,06,07,05,00,12.00
2015,06,07,05,01,12.00
2015,06,07,05,02,12.00
2015,06,07,05,03,12.00
2015,06,07,05,04,12.00
2015,06,07,05,05,11.90
2015,06,07,05,06,11.90
2015,06,07,05,07,11.90
2015,06,07,05,08,11.90
2015,06,07,05,09,11.90
2015,06,07,05,10,11.90
2015,06,07,05,11,11.90
2015,06,07,05,12,11.90
2015,06,07,05,13,11.90
2015,06,07,05,14,11.90
2015,06,07,05,15,11.90
2015,06,07,05,16,11.90
2015,06,07,05,17,11.80
2015,06,07,05,18,11.80
2015,06,07,05,19,11.80
2015,06,07,05,20,11.80
2015,06,07,05,21,11.80
2015,06,07,05,22,11.80
2015,06,07,05,23,11.80
2015,06,07,05,24,11.80
2015,06,07,05,25,11.80
2015,06,07,05,26,11.80
2015,06,07,05,27,11.80
2015,06,07,05,28,11.80
2015,06,07,05,29,11.80
2015,06,07,05,30,11.80
2015,06,07,05,31,11.80
2015,06,07,05,32,11.70
2015,06,07,05,33,11.70
2015,06,07,05,34,11.70
2015,06,07,05,35,11.70
2015,06,07,05,36,11.70
2015,06,07,05,37,11.70
2015,06,07,05,38,11.60
2015,06,07,05,39,11.60
2015,06,07,05,40,11.60
2015,06,07,05,41,11.60
2015,06,07,05,42,11.60
2015,06,07,05,43,11.60
2015,06,07,05,44,11.60
2015,06,07,05,45,11.60
2015,06,07,05,46,11.60
2015,06,07,05,47,11.60
2015,06,07,05,48,11.60
2015,06,07,05,49,11.60
2015,06,07,05,50,11.60
2015,06,07,05,51,11.60
2015,06,07,05,52,11.70
2015,06,07,05,53,11.70
2015,06,07,05,54,11.70
2015,06,07,05,55,11.70
2015,06,07,05,56,11.80
2015,06,07,05,57,11.80
2015,06,07,05,58,11.80
2015,06,07,05,59,11.90
2015,06,07,06,00,11.90
2015,06,07,06,01,11.90
2015,06,07,06,02,12.00
2015,06,07,06,03,12.00
2015,06,07,06,04,12.10
2015,06,07,06,05,12.10
2015,06,07,06,06,12.20
2015,06,07,06,07,12.20
2015,06,07,06,08,12.30
2015,06,07,06,09,12.30
2015,06,07,06,10,12.40
2015,06,07,06,11,12.40
2015,06,07,06,12,12.50
2015,06,07,06,13,12.50
2015,06,07,06,14,12.60
2015,06,07,06,15,12.60
2015,06,07,06,16,12.70
2015,06,07,06,17,12.80
2015,06,07,06,18,12.80
2015,06,07,06,19,12.80
2015,06,07,06,20,12.90
2015,06,07,06,21,13.00
2015,06,07,06,22,13.00
2015,06,07,06,23,13.10
2015,06,07,06,24,13.20
2015,06,07,06,25,13.20
2015,06,07,06,26,13.30
2015,06,07,06,27,13.40
2015,06,07,06,28,13.50
2015,06,07,06,29,13.50
2015,06,07,06,30,13.60
2015,06,07,06,31,13.70
2015,06,07,06,32,13.80
2015,06,07,06,33,13.80
2015,06,07,06,34,13.90
2015,06,07,06,35,14.00
2015,06,07,06,36,14.10
2015,06,07,06,37,14.20
2015,06,07,06,38,14.20
2015,06,07,06,39,14.30
2015,06,07,06,40,14.40
2015,06,07,06,41,14.40
2015,06,07,06,42,14.50
2015,06,07,06,43,14.60
2015,06,07,06,44,14.60
2015,06,07,06,45,14.70
2015,06,07,06,46,14.80
2015,06,07,06,47,14.90
2015,06,07,06,48,15.00
2015,06,07,06,49,15.00
2015,06,07,06,50,15.00
2015,06,07,06,51,15.10
2015,06,07,06,52,15.20
2015,06,07,06,53,15.30
2015,06,07,06,54,15.40
2015,06,07,06,55,15.50
2015,06,07,06,56,15.60
2015,06,07,06,57,15.80
2015,06,07,06,58,15.90
2015,06,07,06,59,16.00
2015,06,07,07,00,16.10
2015,06,07,07,01,16.20
2015,06,07,07,02,16.30
2015,06,07,07,03,16.30
2015,06,07,07,04,16.40
2015,06,07,07,05,16.50
2015,06,07,07,06,16.60
2015,06,07,07,07,16.70
2015,06,07,07,08,16.70
2015,06,07,07,09,16.80
2015,06,07,07,10,16.80
2015,06,07,07,11,16.80
2015,06,07,07,12,16.90
2015,06,07,07,13,17.00
2015,06,07,07,14,17.10
2015,06,07,07,15,17.10
2015,06,07,07,16,17.20
2015,06,07,07,17,17.30
2015,06,07,07,18,17.30
2015,06,07,07,19,17.40
2015,06,07,07,20,17.50
2015,06,07,07,21,17.60
2015,06,07,07,22,17.70
2015,06,07,07,23,17.80
2015,06,07,07,24,17.80
2015,06,07,07,25,18.00
2015,06,07,07,26,18.00
2015,06,07,07,27,18.20
2015,06,07,07,28,18.20
2015,06,07,07,29,18.30
2015,06,07,07,30,18.40
2015,06,07,07,31,18.50
2015,06,07,07,32,18.60
2015,06,07,07,33,18.60
2015,06,07,07,34,18.70
2015,06,07,07,35,18.80
2015,06,07,07,36,18.90
2015,06,07,07,37,18.90
2015,06,07,07,38,19.00
2015,06,07,07,39,19.10
2015,06,07,07,40,19.20
2015,06,07,07,41,19.20
2015,06,07,07,42,19.30
2015,06,07,07,43,19.40
2015,06,07,07,44,19.40
2015,06,07,07,45,19.40
2015,06,07,07,46,19.40
2015,06,07,07,47,19.50
2015,06,07,07,48,19.50
2015,06,07,07,49,19.60
2015,06,07,07,50,19.60
2015,06,07,07,51,19.50
2015,06,07,07,52,19.40
2015,06,07,07,53,19.40
2015,06,07,07,54,19.40
2015,06,07,07,55,19.30
2015,06,07,07,56,19.30
2015,06,07,07,57,19.20
2015,06,07,07,58,19.20
2015,06,07,07,59,19.10
2015,06,07,08,00,19.10
2015,06,07,08,01,19.10
2015,06,07,08,02,19.10
2015,06,07,08,03,19.00
2015,06,07,08,04,19.00
2015,06,07,08,05,19.00
2015,06,07,08,06,19.00
2015,06,07,08,07,19.00
2015,06,07,08,08,19.10
2015,06,07,08,09,19.10
2015,06,07,08,10,19.10
2015,06,07,08,11,19.10
2015,06,07,08,12,19.10
2015,06,07,08,13,19.00
2015,06,07,08,14,19.00
2015,06,07,08,15,19.10
2015,06,07,08,16,19.10
2015,06,07,08,17,19.10
2015,06,07,08,18,19.10
2015,06,07,08,19,19.10
2015,06,07,08,20,19.10
2015,06,07,08,21,19.10
2015,06,07,08,22,19.10
2015,06,07,08,23,19.20
2015,06,07,08,24,19.20
2015,06,07,08,25,19.20
2015,06,07,08,26,19.20
2015,06,07,08,27,19.20
2015,06,07,08,28,19.10
2015,06,07,08,29,19.10
2015,06,07,08,30,18.90
2015,06,07,08,31,18.90
2015,06,07,08,32,18.80
2015,06,07,08,33,18.80
2015,06,07,08,34,18.80
2015,06,07,08,35,18.80
2015,06,07,08,36,18.80
2015,06,07,08,37,18.80
2015,06,07,08,38,18.80
2015,06,07,08,39,18.80
2015,06,07,08,40,18.80
2015,06,07,08,41,18.70
2015,06,07,08,42,18.70
2015,06,07,08,43,18.60
2015,06,07,08,44,18.60
2015,06,07,08,45,18.60
2015,06,07,08,46,18.60
2015,06,07,08,47,18.50
2015,06,07,08,48,18.60
2015,06,07,08,49,18.60
2015,06,07,08,50,18.60
2015,06,07,08,51,18.60
2015,06,07,08,52,18.60
2015,06,07,08,53,18.70
2015,06,07,08,54,18.70
2015,06,07,08,55,18.70
2015,06,07,08,56,18.80
2015,06,07,08,57,18.80
2015,06,07,08,58,18.80
2015,06,07,08,59,18.80
2015,06,07,09,00,18.90
2015,06,07,09,01,18.90
2015,06,07,09,02,19.00
2015,06,07,09,03,19.00
2015,06,07,09,04,19.10
2015,06,07,09,05,19.10
2015,06,07,09,06,19.20
2015,06,07,09,07,19.20
2015,06,07,09,08,19.20
2015,06,07,09,09,19.20
2015,06,07,09,10,19.30
2015,06,07,09,11,19.30
2015,06,07,09,12,19.40
2015,06,07,09,13,19.40
2015,06,07,09,14,19.40
2015,06,07,09,15,19.40
2015,06,07,09,16,19.50
2015,06,07,09,17,19.50
2015,06,07,09,18,19.40
2015,06,07,09,19,19.40
2015,06,07,09,20,19.40
2015,06,07,09,21,19.30
2015,06,07,09,22,19.30
2015,06,07,09,23,19.20
2015,06,07,09,24,19.10
2015,06,07,09,25,19.10
2015,06,07,09,26,19.00
2015,06,07,09,27,19.00
2015,06,07,09,28,19.00
2015,06,07,09,29,19.00
2015,06,07,09,30,19.00
2015,06,07,09,31,19.10
2015,06,07,09,32,19.10
2015,06,07,09,33,19.10
2015,06,07,09,34,19.10
2015,06,07,09,35,19.20
2015,06,07,09,36,19.30
2015,06,07,09,37,19.40
2015,06,07,09,38,19.40
2015,06,07,09,39,19.50
2015,06,07,09,40,19.50
2015,06,07,09,41,19.60
2015,06,07,09,42,19.50
2015,06,07,09,43,19.50
2015,06,07,09,44,19.50
2015,06,07,09,45,19.50
2015,06,07,09,46,19.50
2015,06,07,09,47,19.50
2015,06,07,09,48,19.50
2015,06,07,09,49,19.50
2015,06,07,09,50,19.60
2015,06,07,09,51,19.60
2015,06,07,09,52,19.60
2015,06,07,09,53,19.60
2015,06,07,09,54,19.60
2015,06,07,09,55,19.50
2015,06,07,09,56,19.40
2015,06,07,09,57,19.40
2015,06,07,09,58,19.30
2015,06,07,09,59,19.30
2015,06,07,10,00,19.30
2015,06,07,10,01,19.30
2015,06,07,10,02,19.30
2015,06,07,10,03,19.30
2015,06,07,10,04,19.40
2015,06,07,10,05,19.40
2015,06,07,10,06,19.50
2015,06,07,10,07,19.50
2015,06,07,10,08,19.60
2015,06,07,10,09,19.60
2015,06,07,10,10,19.70
2015,06,07,10,11,19.80
2015,06,07,10,12,19.80
2015,06,07,10,13,19.90
2015,06,07,10,14,20.10
2015,06,07,10,15,20.20
2015,06,07,10,16,20.30
2015,06,07,10,17,20.50
2015,06,07,10,18,20.60
2015,06,07,10,19,20.80
2015,06,07,10,20,20.90
2015,06,07,10,21,21.00
2015,06,07,10,22,21.00
2015,06,07,10,23,21.10
2015,06,07,10,24,21.00
2015,06,07,10,25,21.10
2015,06,07,10,26,21.10
2015,06,07,10,27,21.20
2015,06,07,10,28,21.20
2015,06,07,10,29,21.30
2015,06,07,10,30,21.40
2015,06,07,10,31,21.50
2015,06,07,10,32,21.60
2015,06,07,10,33,21.60
2015,06,07,10,34,21.60
2015,06,07,10,35,21.50
2015,06,07,10,36,21.50
2015,06,07,10,37,21.40
2015,06,07,10,38,21.40
2015,06,07,10,39,21.40
2015,06,07,10,40,21.50
2015,06,07,10,41,21.50
2015,06,07,10,42,21.60
2015,06,07,10,43,21.70
2015,06,07,10,44,21.80
2015,06,07,10,45,21.70
2015,06,07,10,46,21.60
2015,06,07,10,47,21.50
2015,06,07,10,48,21.40
2015,06,07,10,49,21.10
2015,06,07,10,50,20.90
2015,06,07,10,51,20.80
2015,06,07,10,52,20.70
2015,06,07,10,53,20.60
2015,06,07,10,54,20.60
2015,06,07,10,55,20.60
2015,06,07,10,56,20.70
2015,06,07,10,57,20.80
2015,06,07,10,58,20.90
2015,06,07,10,59,21.00
2015,06,07,11,00,21.10
2015,06,07,11,01,21.20
2015,06,07,11,02,21.20
2015,06,07,11,03,21.20
2015,06,07,11,04,21.20
2015,06,07,11,05,21.20
2015,06,07,11,06,21.20
2015,06,07,11,07,21.30
2015,06,07,11,08,21.30
2015,06,07,11,09,21.30
2015,06,07,11,10,21.30
2015,06,07,11,11,21.40
2015,06,07,11,12,21.40
2015,06,07,11,13,21.40
2015,06,07,11,14,21.40
2015,06,07,11,15,21.50
2015,06,07,11,16,21.50
2015,06,07,11,17,21.60
2015,06,07,11,18,21.60
2015,06,07,11,19,21.70
2015,06,07,11,20,21.80
2015,06,07,11,21,21.80
2015,06,07,11,22,21.70
2015,06,07,11,23,21.70
2015,06,07,11,24,21.70
2015,06,07,11,25,21.80
2015,06,07,11,26,21.80
2015,06,07,11,27,21.90
2015,06,07,11,28,22.00
2015,06,07,11,29,22.00
2015,06,07,11,30,22.00
2015,06,07,11,31,22.10
2015,06,07,11,32,22.10
2015,06,07,11,33,22.00
2015,06,07,11,34,21.90
2015,06,07,11,35,21.90
2015,06,07,11,36,21.90
2015,06,07,11,37,22.00
2015,06,07,11,38,22.10
2015,06,07,11,39,22.20
2015,06,07,11,40,22.30
2015,06,07,11,41,22.30
2015,06,07,11,42,22.40
2015,06,07,11,43,22.50
2015,06,07,11,44,22.60
2015,06,07,11,45,22.70
2015,06,07,11,46,22.80
2015,06,07,11,47,22.90
2015,06,07,11,48,22.90
2015,06,07,11,49,23.00
2015,06,07,11,50,23.00
2015,06,07,11,51,23.00
2015,06,07,11,52,22.90
2015,06,07,11,53,22.90
2015,06,07,11,54,23.00
2015,06,07,11,55,23.10
2015,06,07,11,56,23.20
2015,06,07,11,57,23.30
2015,06,07,11,58,23.40
2015,06,07,11,59,23.40
2015,06,07,12,00,23.50
2015,06,07,12,01,23.40
2015,06,07,12,02,23.30
2015,06,07,12,03,23.40
2015,06,07,12,04,23.40
2015,06,07,12,05,23.50
2015,06,07,12,06,23.60
2015,06,07,12,07,23.60
2015,06,07,12,08,23.60
2015,06,07,12,09,23.70
2015,06,07,12,10,23.70
2015,06,07,12,11,23.70
2015,06,07,12,12,23.70
2015,06,07,12,13,23.80
2015,06,07,12,14,23.80
2015,06,07,12,15,23.80
2015,06,07,12,16,23.90
2015,06,07,12,17,23.90
2015,06,07,12,18,23.90
2015,06,07,12,19,23.90
2015,06,07,12,20,23.90
2015,06,07,12,21,24.10
2015,06,07,12,22,24.10
2015,06,07,12,23,24.10
2015,06,07,12,24,24.10
2015,06,07,12,25,24.10
2015,06,07,12,26,24.10
2015,06,07,12,27,24.10
2015,06,07,12,28,24.00
2015,06,07,12,29,24.10
2015,06,07,12,30,24.20
2015,06,07,12,31,24.20
2015,06,07,12,32,24.20
2015,06,07,12,33,24.30
2015,06,07,12,34,24.20
2015,06,07,12,35,24.20
2015,06,07,12,36,24.10
2015,06,07,12,37,24.10
2015,06,07,12,38,24.10
2015,06,07,12,39,24.10
2015,06,07,12,40,24.10
2015,06,07,12,41,24.10
2015,06,07,12,42,24.10
2015,06,07,12,43,24.00
2015,06,07,12,44,24.00
2015,06,07,12,45,24.10
2015,06,07,12,46,24.10
2015,06,07,12,47,24.20
2015,06,07,12,48,24.20
2015,06,07,12,49,24.20
2015,06,07,12,50,24.30
2015,06,07,12,51,24.30
2015,06,07,12,52,24.40
2015,06,07,12,53,24.30
2015,06,07,12,54,24.30
2015,06,07,12,55,24.30
2015,06,07,12,56,24.30
2015,06,07,12,57,24.30
2015,06,07,12,58,24.30
2015,06,07,12,59,24.30
2015,06,07,13,00,24.20
2015,06,07,13,01,24.20
2015,06,07,13,02,24.30
2015,06,07,13,03,24.30
2015,06,07,13,04,24.30
2015,06,07,13,05,24.30
2015,06,07,13,06,24.30
2015,06,07,13,07,24.30
2015,06,07,13,08,24.50
2015,06,07,13,09,24.50
2015,06,07,13,10,24.50
2015,06,07,13,11,24.50
2015,06,07,13,12,24.60
2015,06,07,13,13,24.60
2015,06,07,13,14,24.50
2015,06,07,13,15,24.50
2015,06,07,13,16,24.40
2015,06,07,13,17,24.40
2015,06,07,13,18,24.40
2015,06,07,13,19,24.30
2015,06,07,13,20,24.20
2015,06,07,13,21,24.10
2015,06,07,13,22,24.00
2015,06,07,13,23,23.90
2015,06,07,13,24,23.90
2015,06,07,13,25,23.90
2015,06,07,13,26,23.90
2015,06,07,13,27,23.90
2015,06,07,13,28,23.80
2015,06,07,13,29,23.80
2015,06,07,13,30,23.90
2015,06,07,13,31,23.90
2015,06,07,13,32,24.00
2015,06,07,13,33,24.10
2015,06,07,13,34,24.10
2015,06,07,13,35,24.20
2015,06,07,13,36,24.10
2015,06,07,13,37,24.10
2015,06,07,13,38,24.20
2015,06,07,13,39,24.30
2015,06,07,13,40,24.30
2015,06,07,13,41,24.30
2015,06,07,13,42,24.30
2015,06,07,13,43,24.30
2015,06,07,13,44,24.30
2015,06,07,13,45,24.30
2015,06,07,13,46,24.40
2015,06,07,13,47,24.40
2015,06,07,13,48,24.40
2015,06,07,13,49,24.40
2015,06,07,13,50,24.40
2015,06,07,13,51,24.50
2015,06,07,13,52,24.50
2015,06,07,13,53,24.60
2015,06,07,13,54,24.70
2015,06,07,13,55,24.70
2015,06,07,13,56,24.60
2015,06,07,13,57,24.60
2015,06,07,13,58,24.70
2015,06,07,13,59,24.70
2015,06,07,14,00,24.80
2015,06,07,14,01,24.90
2015,06,07,14,02,25.10
2015,06,07,14,03,25.10
2015,06,07,14,04,25.20
2015,06,07,14,05,25.20
2015,06,07,14,06,25.40
2015,06,07,14,07,25.50
2015,06,07,14,08,25.60
2015,06,07,14,09,25.70
2015,06,07,14,10,25.80
2015,06,07,14,11,25.80
2015,06,07,14,12,25.80
2015,06,07,14,13,25.80
2015,06,07,14,14,25.90
2015,06,07,14,15,25.90
2015,06,07,14,16,25.90
2015,06,07,14,17,25.90
2015,06,07,14,18,25.90
2015,06,07,14,19,25.90
2015,06,07,14,20,25.90
2015,06,07,14,21,26.00
2015,06,07,14,22,26.10
2015,06,07,14,23,26.10
2015,06,07,14,24,26.00
2015,06,07,14,25,25.90
2015,06,07,14,26,25.80
2015,06,07,14,27,25.70
2015,06,07,14,28,25.70
2015,06,07,14,29,25.80
2015,06,07,14,30,25.80
2015,06,07,14,31,25.80
2015,06,07,14,32,25.90
2015,06,07,14,33,25.90
2015,06,07,14,34,25.90
2015,06,07,14,35,25.90
2015,06,07,14,36,26.00
2015,06,07,14,37,26.10
2015,06,07,14,38,26.00
2015,06,07,14,39,25.80
2015,06,07,14,40,25.40
2015,06,07,14,41,25.00
2015,06,07,14,42,24.70
2015,06,07,14,43,24.40
2015,06,07,14,44,24.30
2015,06,07,14,45,24.20
2015,06,07,14,46,24.20
2015,06,07,14,47,24.10
2015,06,07,14,48,24.00
2015,06,07,14,49,23.90
2015,06,07,14,50,23.70
2015,06,07,14,51,23.70
2015,06,07,14,52,23.50
2015,06,07,14,53,23.50
2015,06,07,14,54,23.50
2015,06,07,14,55,23.40
2015,06,07,14,56,23.30
2015,06,07,14,57,23.30
2015,06,07,14,58,23.30
2015,06,07,14,59,23.40
2015,06,07,15,00,23.50
2015,06,07,15,01,23.50
2015,06,07,15,02,23.50
2015,06,07,15,03,23.50
2015,06,07,15,04,23.60
2015,06,07,15,05,23.60
2015,06,07,15,06,23.60
2015,06,07,15,07,23.70
2015,06,07,15,08,23.80
2015,06,07,15,09,23.90
2015,06,07,15,10,23.90
2015,06,07,15,11,24.00
2015,06,07,15,12,24.10
2015,06,07,15,13,24.20
2015,06,07,15,14,24.20
2015,06,07,15,15,24.20
2015,06,07,15,16,24.20
2015,06,07,15,17,24.30
2015,06,07,15,18,24.40
2015,06,07,15,19,24.40
2015,06,07,15,20,24.60
2015,06,07,15,21,24.70
2015,06,07,15,22,24.90
2015,06,07,15,23,25.00
2015,06,07,15,24,25.00
2015,06,07,15,25,25.00
2015,06,07,15,26,25.00
2015,06,07,15,27,24.90
2015,06,07,15,28,24.80
2015,06,07,15,29,24.60
2015,06,07,15,30,24.50
2015,06,07,15,31,24.60
2015,06,07,15,32,24.60
2015,06,07,15,33,24.70
2015,06,07,15,34,24.80
2015,06,07,15,35,24.80
2015,06,07,15,36,24.80
2015,06,07,15,37,24.80
2015,06,07,15,38,24.70
2015,06,07,15,39,24.70
2015,06,07,15,40,24.70
2015,06,07,15,41,24.70
2015,06,07,15,42,24.80
2015,06,07,15,43,24.80
2015,06,07,15,44,24.70
2015,06,07,15,45,24.70
2015,06,07,15,46,24.80
2015,06,07,15,47,24.70
2015,06,07,15,48,24.70
2015,06,07,15,49,24.70
2015,06,07,15,50,24.70
2015,06,07,15,51,24.70
2015,06,07,15,52,24.70
2015,06,07,15,53,24.70
2015,06,07,15,54,24.70
2015,06,07,15,55,24.60
2015,06,07,15,56,24.50
2015,06,07,15,57,24.40
2015,06,07,15,58,24.30
2015,06,07,15,59,24.20
2015,06,07,16,00,24.10
2015,06,07,16,01,24.00
2015,06,07,16,02,23.90
2015,06,07,16,03,23.90
2015,06,07,16,04,23.90
2015,06,07,16,05,24.00
2015,06,07,16,06,24.00
2015,06,07,16,07,24.00
2015,06,07,16,08,24.10
2015,06,07,16,09,24.00
2015,06,07,16,10,24.00
2015,06,07,16,11,24.00
2015,06,07,16,12,24.00
2015,06,07,16,13,24.00
2015,06,07,16,14,24.00
2015,06,07,16,15,24.10
2015,06,07,16,16,24.10
2015,06,07,16,17,24.20
2015,06,07,16,18,24.20
2015,06,07,16,19,24.20
2015,06,07,16,20,24.30
2015,06,07,16,21,24.30
2015,06,07,16,22,24.30
2015,06,07,16,23,24.30
2015,06,07,16,24,24.30
2015,06,07,16,25,24.20
2015,06,07,16,26,24.20
2015,06,07,16,27,24.30
2015,06,07,16,28,24.30
2015,06,07,16,29,24.20
2015,06,07,16,30,24.20
2015,06,07,16,31,24.10
2015,06,07,16,32,24.00
2015,06,07,16,33,24.00
2015,06,07,16,34,24.10
2015,06,07,16,35,24.20
2015,06,07,16,36,24.20
2015,06,07,16,37,24.20
2015,06,07,16,38,24.30
2015,06,07,16,39,24.30
2015,06,07,16,40,24.30
2015,06,07,16,41,24.20
2015,06,07,16,42,24.10
2015,06,07,16,43,24.10
2015,06,07,16,44,24.10
2015,06,07,16,45,24.10
2015,06,07,16,46,24.10
2015,06,07,16,47,24.10
2015,06,07,16,48,24.00
2015,06,07,16,49,23.90
2015,06,07,16,50,23.80
2015,06,07,16,51,23.70
2015,06,07,16,52,23.70
2015,06,07,16,53,23.70
2015,06,07,16,54,23.70
2015,06,07,16,55,23.80
2015,06,07,16,56,23.80
2015,06,07,16,57,23.90
2015,06,07,16,58,23.90
2015,06,07,16,59,23.80
2015,06,07,17,00,23.80
2015,06,07,17,01,23.80
2015,06,07,17,02,23.90
2015,06,07,17,03,24.10
2015,06,07,17,04,24.10
2015,06,07,17,05,24.20
2015,06,07,17,06,24.20
2015,06,07,17,07,24.10
2015,06,07,17,08,24.10
2015,06,07,17,09,24.00
2015,06,07,17,10,24.10
2015,06,07,17,11,24.10
2015,06,07,17,12,24.10
2015,06,07,17,13,24.10
2015,06,07,17,14,24.10
2015,06,07,17,15,24.10
2015,06,07,17,16,24.10
2015,06,07,17,17,24.20
2015,06,07,17,18,24.20
2015,06,07,17,19,24.20